Riverside, CA

8:31 PM PDT on August 31, 2016 (GMT -0700)
March Air Reserve Base

Weather History for KRIV - June, 2014

Change the Weather History Date:

Saturday, June 7, 2014

  Actual Average Record
Temperature  
Mean Temperature 70 °F -  
Max Temperature 84 °F 79 °F 95 °F (2015)
Min Temperature 55 °F 53 °F 43 °F (2011)
Cooling Degree Days 4    
Growing Degree Days 20 (Base 50)    
Moisture  
Dew Point 55 °F    
Average Humidity 71    
Maximum Humidity 94    
Minimum Humidity 37    
Precipitation  
Precipitation 0.00 in - - ()
Sea Level Pressure  
Sea Level Pressure 29.81 in    
Wind  
Wind Speed 4 mph (WNW)    
Max Wind Speed 12 mph    
Max Gust Speed -    
Visibility 8 miles    
Events      
Averages and records for this station are not official NWS values.
T = Trace of Precipitation, MM = Missing Value Source: NWS Daily Summary

Daily Weather History Graph

Daily Weather History Graph

Search for Another Location

Airport or City:

Trip Planner

Search our weather history database for the weather conditions in past years. The results will help you decide how hot, cold, wet, or windy it might be!

Date:

Astronomy

Jun. 07, 2014 Rise Set
Actual Time 5:37 AM PDT 7:58 PM PDT
Civil Twilight 5:08 AM PDT 8:27 PM PDT
Nautical Twilight 4:33 AM PDT 9:02 PM PDT
Astronomical Twilight 3:54 AM PDT 9:41 PM PDT
Moon 2:34 PM PDT (6/7) 1:46 AM PDT (6/7)
Length of Visible Light 15h 18m
Length of Day
14h 20m
Waxing Gibbous, 69% of the Moon is Illuminated
Jun 7
Waxing Gibbous
Jun 12
Full
Jun 19
Last Quarter
Jun 27
New
Jul 5
First Quarter

Hourly Weather History & Observations

Time (PDT) Temp. Heat Index Dew Point Humidity Pressure Visibility Wind Dir Wind Speed Gust Speed Precip Events Conditions
12:58 AM 59.0 °F - 54.0 °F 83% 29.82 in 10.0 mi WNW 2.3 mph - N/A   Clear
1:58 AM 57.9 °F - 53.8 °F 86% 29.82 in 10.0 mi WNW 3.5 mph - N/A   Clear
2:09 AM 57.2 °F - 53.6 °F 88% 29.85 in 10.0 mi NW 4.6 mph - N/A   Partly Cloudy
2:58 AM 56.5 °F - 54.0 °F 91% 29.80 in 7.0 mi WNW 4.6 mph - N/A   Scattered Clouds
3:23 AM 55.4 °F - 53.6 °F 94% 29.83 in 5.0 mi West 4.6 mph - N/A   Mostly Cloudy
3:58 AM 56.7 °F - 55.0 °F 94% 29.79 in 4.0 mi West 4.6 mph - N/A   Mostly Cloudy
4:58 AM 56.8 °F - 55.0 °F 94% 29.79 in 4.0 mi Calm Calm - N/A   Mostly Cloudy
5:58 AM 57.0 °F - 55.0 °F 93% 29.80 in 2.5 mi Calm Calm - N/A   Overcast
6:43 AM 57.2 °F - 55.4 °F 94% 29.84 in 3.0 mi Variable 3.5 mph - N/A   Overcast
6:58 AM 57.7 °F - 55.2 °F 91% 29.82 in 3.0 mi NW 2.3 mph - N/A   Overcast
7:58 AM 58.6 °F - 55.4 °F 89% 29.84 in 3.0 mi Calm Calm - N/A   Overcast
8:17 AM 59.0 °F - 55.4 °F 88% 29.86 in 4.0 mi South 2.3 mph - N/A   Overcast
8:26 AM 60.8 °F - 55.4 °F 82% 29.86 in 4.0 mi West 1.2 mph - N/A   Haze
8:42 AM 60.8 °F - 55.4 °F 82% 29.86 in 6.0 mi NNW 3.5 mph - N/A   Haze
8:58 AM 61.3 °F - 55.6 °F 81% 29.84 in 8.0 mi NNW 4.6 mph - N/A   Overcast
9:18 AM 62.6 °F - 55.4 °F 77% 29.86 in 9.0 mi North 2.3 mph - N/A   Overcast
9:38 AM 64.4 °F - 55.4 °F 73% 29.86 in 10.0 mi North 5.8 mph - N/A   Mostly Cloudy
9:48 AM 64.4 °F - 55.4 °F 73% 29.86 in 10.0 mi WNW 4.6 mph - N/A   Overcast
9:58 AM 65.1 °F - 55.9 °F 72% 29.83 in 10.0 mi Variable 1.2 mph - N/A   Mostly Cloudy
10:58 AM 69.3 °F - 55.0 °F 60% 29.83 in 10.0 mi Variable 3.5 mph - N/A   Clear
11:58 AM 73.8 °F - 55.2 °F 52% 29.81 in 10.0 mi Calm Calm - N/A   Partly Cloudy
12:58 PM 78.8 °F - 53.8 °F 42% 29.79 in 10.0 mi Variable 2.3 mph - N/A   Scattered Clouds
1:58 PM 80.2 °F 80.2 °F 54.9 °F 41% 29.78 in 10.0 mi North 8.1 mph - N/A   Partly Cloudy
2:58 PM 82.6 °F 82.1 °F 56.7 °F 41% 29.76 in 10.0 mi WNW 9.2 mph - N/A   Clear
3:58 PM 83.3 °F 82.5 °F 55.8 °F 39% 29.75 in 10.0 mi NW 9.2 mph - N/A   Clear
4:58 PM 84.4 °F 83.2 °F 55.4 °F 37% 29.75 in 10.0 mi WNW 9.2 mph - N/A   Clear
5:58 PM 82.0 °F 81.5 °F 55.4 °F 40% 29.74 in 10.0 mi WNW 11.5 mph - N/A   Clear
6:58 PM 79.2 °F - 54.5 °F 42% 29.75 in 10.0 mi WNW 10.4 mph - N/A   Clear
7:58 PM 74.7 °F - 55.2 °F 51% 29.76 in 10.0 mi WNW 8.1 mph - N/A   Clear
8:58 PM 70.5 °F - 55.4 °F 59% 29.78 in 10.0 mi West 5.8 mph - N/A   Clear
9:58 PM 67.6 °F - 55.6 °F 65% 29.81 in 10.0 mi West 5.8 mph - N/A   Clear
10:58 PM 65.1 °F - 55.4 °F 71% 29.80 in 10.0 mi WNW 4.6 mph - N/A   Clear
11:58 PM 62.8 °F - 55.2 °F 76% 29.80 in 10.0 mi West 4.6 mph - N/A   Clear